Regional Weather Roundup
Issued by NWS Upton, NY

Current Version | Previous Version | Graphics & Text | Print | Product List | Glossary Off
Versions: 1 2 3 4 5 6 7 8 9 10 11 12 13 14 15 16 17 18 19 20 21 22 23 24 25 26 27 28 29 30 31 32 33 34 35 36 37 38 39 40 41 42 43 44 45 46 47 48 49 50

988
ASUS41 KOKX 020408
RWROKX

REGIONAL WEATHER ROUNDUP
NATIONAL WEATHER SERVICE NEW YORK NY
1100 PM EST THU DEC 01 2016

NOTE: "FAIR" INDICATES FEW OR NO CLOUDS BELOW 12,000 FEET WITH NO
SIGNIFICANT WEATHER AND/OR OBSTRUCTIONS TO VISIBILITY.

NYZ071-072-176-178-NJZ106-104-020500-
NEW YORK CITY METRO AREA

CITY           SKY/WX    TMP DP  RH WIND       PRES   REMARKS
Central Park   CLEAR     43  27  53 W6G18     29.85R
Wall St Helipt CLEAR     44  30  57 W8G21     29.85R
Bronx Bot Gard NOT AVBL
LaGuardia APRT PTCLDY    46  28  49 W13G25    29.83R
Kennedy INTL   PTCLDY    45  27  49 W16G25    29.84R
Breezy Point     N/A     43 N/A N/A W15G26      N/A
Newark/Liberty PTCLDY    43  28  55 W15       29.84R
Teterboro      CLEAR     43  27  53 W14       29.82R
$$

NYZ177-179-078>081-020500-
LONG ISLAND NEW YORK

CITY           SKY/WX    TMP DP  RH WIND       PRES   REMARKS
Jones Beach      N/A     45 N/A N/A W23G30      N/A
Matinecock PT    N/A     45 N/A N/A W23         N/A
Farmingdale    CLEAR     44  27  51 W9G18     29.82R
MacArthur/ISP  PTCLDY    43  28  55 W12       29.80R
Shirley        CLEAR     43  29  57 W8        29.81R
Westhampton    CLEAR     41  29  62 W9        29.81R
Southampton    NOT AVBL
Bridgehampton  NOT AVBL
East Hampton     N/A     44  29  55 W9        29.78R
Montauk          N/A     47  33  58 W14G25    29.78R
$$

NYZ052-065-067-020500-
HUDSON VALLEY

CITY           SKY/WX    TMP DP  RH WIND       PRES   REMARKS
White Plains   PTCLDY    42  26  53 W15       29.79R
Newburgh       CLEAR     41  30  65 W12       29.80R
Montgomery     CLOUDY    42  29  59 W8        29.79R
Poughkeepsie   CLOUDY    42  27  55 W12       29.79R
Albany         PTCLDY    41  30  65 W8        29.73R
$$

NJZ001-105-106-008-010-013-015-019>022-104-020500-
NEW JERSEY

CITY           SKY/WX    TMP DP  RH WIND       PRES   REMARKS
Newark/Liberty PTCLDY    43  28  55 W15       29.84R
Teterboro      CLEAR     43  27  53 W14       29.82R
Caldwell       CLEAR     42  27  55 W9G18     29.84R
Somerville     CLEAR     41  26  55 NW5       29.84S
Linden           N/A     42  27  56 NW13G20   29.85R
Sussex         PTCLDY    40  28  62 VRB5      29.81S
Andover          N/A     37  27  67 CALM      29.83R
Trenton        CLEAR     41  25  53 W7        29.86S
Millville      CLOUDY    45  29  53 NW13      29.93R
Atlantic City  CLEAR     43  27  53 NW9       29.91R
Wrightstown    PTCLDY    41  26  55 W10       29.85S
Toms River     CLEAR     41  27  57 W8        29.89R
Belmar         PTCLDY    40  27  59 W8        29.87R WCI  34
$$

PAZ047>061-062-071-020500-
EASTERN PENNSYLVANIA

CITY           SKY/WX    TMP DP  RH WIND       PRES   REMARKS
Philadelphia   NOT AVBL
Allentown      PTCLDY    35  25  66 SW6       29.86S WCI  30
Scranton       CLEAR     37  27  67 SW7       29.82R WCI  32
$$

CTZ002-004>006-009-010-012-RIZ004-006-007-MAZ004-011-015-020500-
SOUTHERN NEW ENGLAND
 IN CT

CITY           SKY/WX    TMP DP  RH WIND       PRES   REMARKS
Bradley INTL   PTCLDY    37  30  75 W7        29.75R WCI  32
Hartford       CLEAR     42  30  62 SW6       29.76R
Danbury        PTCLDY    41  26  55 W8G18     29.78R
Wtrbury/Oxford PTCLDY    39  25  56 W7        29.76S WCI  34
Bridgeport     CLEAR     44  28  53 W8        29.79R
Meriden        CLEAR     43  28  55 W6        29.77R
New Haven      CLEAR     43  30  60 W7        29.79R
Chester          N/A     41  30  65 W10       29.75R
Groton         CLEAR     46  32  58 W9        29.76R
Wilimantic     CLEAR     43  31  62 W6        29.74R

 IN RI

CITY           SKY/WX    TMP DP  RH WIND       PRES   REMARKS
Providence     CLEAR     43  30  60 W8        29.73R
Block Island   CLEAR     46  32  58 W20G25    29.76R
Westerly       CLEAR     44  29  55 W7        29.76R
 IN MA

CITY           SKY/WX    TMP DP  RH WIND       PRES   REMARKS
Boston         PTCLDY    44  31  60 W10G20    29.68R
Worcester      CLEAR     37  28  70 W12       29.67R WCI  29
Westfield      MOCLDY    34  30  85 CALM      29.74R
Provincetown   CLEAR     45  35  68 W20G25    29.68R
Nantucket      MOCLDY    47  35  63 W14       29.70R
$$

ANZ330-335-338-340-345-350-353-355-020500-
COASTAL MARINE OBSERVATIONS


STATION/POSITION TIME  SKY/WX   TEMP    WIND        PRES    VSBY  WAVE
                                AIR SEA DIR/SP/G                  HT/PER
                 (UTC)          (F)     (DEG/KT/KT) (MB)    (MI)  (FT/S)
NY HARB ENTRANCE 0250            47 54  280/ 23/ 27 1009.5          5/ 5
20 S FIRE ISLAND 0250            48 55  300/ 23/ 31 1008.9          7/ 6
GREAT SOUTH BAY  0330            45 46                N/A
23 SSW MONTAUK P 0250            50 56  270/ 23/ 29 1007.7          8/ 7
15 E BARNEGAT LI 0330               55                N/A           5/ 4
HUDSON CANYON    0250            51 59              1009.0         10/ 7
KINGS POINT      0324            45 50              1009.6
EXECUTION ROCKS  0330            45     260/ 16/ 21   N/A
CENTRAL LI SOUND 0330            47 52  280/ 19/ 23   N/A           4/ 5
EASTERN LI SOUND NOT AVBL
ROBBINS REEF     0324            44     280/ 19/ 23 1010.0
$$


>>>>>>>>>>>>>>>>>>>>>>>>>>>> KEY <<<<<<<<<<<<<<<<<<<<<<<<<<<
>                                                          <
>     SKY/WX - Sky Condition/Present Weather               <
>     TMP    - Temperature in Fahrenheit                   <
>     DP     - Dew Point in Fahrenheit                     <
>     RH     - Relative Humidity in Percent                <
>     WIND   - Direction (from) and Speed in MPH           <
>     PRES   - Mean Sea Level Pressure (inches of Hg)      <
>     WCI    - Wind Chill Index                            <
>     VSB    - VISIBILITY IN MILES                         <
>     HX     - HEAT INDEX                                  <
>     TC     - TEMPERATURE IN CELSIUS                      <
>     VRB    - VARIABLE WIND DIRECTION                     <
>                                                          <
>>>>>>>>>>>>>>>>>>>>>>>>>>>> KEY <<<<<<<<<<<<<<<<<<<<<<<<<<<




USA.gov is the U.S. government's official web portal to all federal, state and local government web resources and services.